Location: Amber Place
(27.9751°N, 82.3711°W)
Time: 12:56:08
(UTC+00:00)

N. Korean satellite - Pass Details

Date: 03 October 2021
Orbit: 450 x 495 km, 97.3° (Epoch: 19 October)

Event Time Altitude Azimuth Distance (km) Brightness Sun altitude
Rises 10:48:28 0° 6° (N) 2,558 10.3 -8.6°
Reaches altitude 10° 10:50:33 10° 2° (N) 1,680 9.3 -8.1°
Maximum altitude 10:54:06 58° 283° (WNW) 577 6.6 -7.3°
Drops below altitude 10° 10:57:41 10° 203° (SSW) 1,684 9.1 -6.5°
Sets 10:59:46 0° 200° (SSW) 2,564 10.0 -6.1°
